Starlink 35111

operational
NORAD ID: 65463 Int'l Des: 2025-195 Owner: SPXS Country: US Constellation: starlink
LEOCIRCULAR

Starlink 35111について

説明を読み込み中...

リアルタイム位置

3D地球を読み込み中...

次回通過

高度履歴

Altitude vs Time

uPlot chart will show altitude changes over time

軌道要素

1 65463U 25195F 25293.99477946 .00058885 00000-0 14704-2 0 9994
2 65463 53.1600 188.6256 0000922 61.0545 299.0553 15.39627900 8587
Epoch: Oct 20, 2025 • Age: 24 hours

現在のステータス

高度 452.8 km
速度 7.65 km/s
衛星直下点 52.91°N, 120.61°W
打ち上げ日 Sep 3, 2025
運用期間 0.1 years
タイプ internet

技術仕様

分類 Payload
質量 575.00 kg
乾燥質量 530.00 kg
総質量 575.00 kg
長さ 0.30 m
直径 4.10 m
スパン 29.00 m
形状 Box + pan
製造者 SPXS
バスタイプ Starlink V2MO
フェーズステータス In Orbit
所有者/国 SPXS/US

大規模コンステレーション

Loading constellations...